Preview of NWS' New Version of Forecast
This preview is not operational and should not be used for support decisions.
Latest weather observations around

Tuscaloosa Regional Airport (KTCL)

Using International System of Units (Switch to English Units)
Date/ Time (CST) Wind (kph) Vis. (km) Weather Sky Cond. Temp (°C) Rel. Humidity Wind Chill (°C) Heat Index (°C) Pressure Precip. (cm)
Air Dwpt 6 hour Altimeter (hPa) Sea level (hPa) 1 hr 3 hr 6 hr
Max Min
Feb 25 16:53 NE 8 9.66 Light Rain and Fog/Mist OVC100 12 12     100%     1020.7 1020.4 0    
Feb 25 15:53 N 5 8.05 Light Rain and Fog/Mist BKN090 OVC110 12 12     97%     1020.3 1020.2 0    
Feb 25 14:53 NNW 9 16.09 Light Rain FEW008 BKN095 OVC110 12 12     97%     1020.7 1020.4 0 0  
Feb 25 13:53 ENE 5 16.09 Light Rain FEW014 OVC110 13 12     93%     1019.3 1019.1 0    
Feb 25 13:45 Calm 16.09 Light Rain SCT011 BKN016 OVC100 13 12     93%     1019.7   0    
Feb 25 13:10   16.09 Light Rain BKN011 BKN100 OVC120 13 12     96%     1020.3   0    
Feb 25 12:53 SE 11 16.09 Light Rain SCT011 BKN100 OVC110 12 12     97%     1018.6 1018.4 0    
Feb 25 12:41 SSE 11 16.09 Light Rain FEW011 OVC110 12 12     97%     1019   0    
Feb 25 12:27 ESE 8 16.09 Light Rain BKN011 OVC110 12 12     97%     1019.7   0    
Feb 25 12:09 W 11 16.09 Light Rain BKN009 OVC110 12 12     97%     1020.3   0    
Feb 25 11:53 ESE 8 16.09 Light Rain FEW009 OVC110 12 12     97%     1019.3 1019.2 0   1
Feb 25 10:53 W 13 16.09 Light Rain FEW085 OVC110 12 11     93%     1021.7 1021.6 0    
Feb 25 09:53 SE 15 16.09 Light Rain FEW007 OVC110 11 11     100%     1021 1020.8 0    
Feb 25 09:31 SE 8 14.48 Light Rain FEW007 OVC100 12 11     96%     1022   0    
Feb 25 08:53 SW 8 16.09 Light Rain OVC100 11 11     97%     1022.4 1022 0 1  
Feb 25 07:53 Calm 16.09 Light Rain OVC095 11 11     97%     1021 1020.6 0    
Feb 25 06:53 E 5 12.87 Light Rain FEW035 FEW060 OVC085 11 10     96%     1020 1019.9 1    
Feb 25 06:34 NW 11 4.83 Rain and Fog/Mist BKN042 OVC080 11 10     96%     1020.3   1    
Feb 25 06:24 NW 13 4.02 Rain and Fog/Mist BKN040 OVC075 11 9     92%     1020.3   1    
Feb 25 06:11 NNW 17 2.82 Heavy Rain and Fog/Mist BKN036 OVC055 11 9     92%     1020   0    
Feb 25 05:53 NNW 15 4.83 Rain and Fog/Mist FEW033 BKN047 OVC060 11 11     97%     1020 1019.6 0   1
Feb 25 04:53 N 18 8.05 Light Rain and Fog/Mist SCT014 BKN031 OVC047 12 12     100%     1019 1018.6 0    
Feb 25 04:44 N 18 6.44 Rain and Fog/Mist FEW009 BKN015 OVC050 13 12     96%     1018.3   0    
Feb 25 04:00 NNW 15 16.09 Light Rain BKN008 BKN012 OVC029 14 13     96%     1016.9   0    
Feb 25 03:53 NNW 17 9.66 Light Rain and Fog/Mist SCT010 BKN014 OVC045 14 14     100%     1016.6 1016.4 0    
Feb 25 03:47 NNW 21 4.83 Light Rain and Fog/Mist SCT010 BKN022 OVC044 14 14     100%     1016.3   0    
Feb 25 03:39 NNW 22 2.82 Heavy Rain and Fog/Mist SCT010 BKN021 OVC027 14 14     97%     1016.6   0    
Feb 25 03:23 NNW 21 14.48 Light Rain BKN020 OVC026 16 14     93%     1015.6   0    
Feb 25 02:53 S 11 16.09 Cloudy BKN021 BKN028 OVC043 21 20     93%     1014.2 1014   0  
Feb 25 01:53 S 18 16.09 Mostly Cloudy BKN022 BKN027 21 19     90%     1014.9 1014.7      
Feb 25 00:53 S 21 16.09 Cloudy SCT019 BKN024 OVC030 22 19     87%   22 1015.6 1015.4 0    
Feb 25 00:15 S 17 16.09 Light Rain BKN025 BKN038 OVC075 21 19     90%     1015.6   0    
Feb 25 00:06 S 21 16.09 Cloudy FEW024 BKN032 OVC075 22 19     87%   22 1015.6        
Feb 24 23:53 S 18 16.09 Cloudy BKN024 BKN028 OVC034 22 19     87%   22 1015.6 1015.2      
Feb 24 22:53 S 24 16.09 Cloudy BKN025 OVC100 22 19     84%   22 1015.6 1015.3      
Feb 24 22:45 S 21 16.09 Mostly Cloudy BKN025 BKN100 21 19     87%     1015.2        
Feb 24 21:53 S 22 16.09 Clear CLR 22 18     81%   22 1015.6 1015.4      
Feb 24 20:53 S 22 16.09 Clear CLR 22 18     81%   22 1015.2 1015.1      
Feb 24 19:53 S 21 16.09 Clear CLR 22 18     81%   22 1014.9 1014.6      
Feb 24 18:53 S 21 16.09 Mostly Clear FEW100 22 18     81%   22 1014.9 1014.5      
Feb 24 17:53 S 17 16.09 Mostly Cloudy BKN100 BKN120 22 21     93%   22 1014.6 1014.3 0   1
Feb 24 17:05 SW 5 16.09 Cloudy FEW037 BKN049 OVC090 22 21     96%   22 1014.6   0    
Feb 24 16:53 S 9 4.83 Thunderstorms and Rain and Fog/Mist SCT039 OVC055 22 20     90%   22 1014.6 1014.3 0    
Feb 24 16:48 S 11 3.22 Thunderstorms and Heavy Rain and Fog/Mist FEW024 BKN040 OVC060 22 21     94%   23 1014.6   0    
Feb 24 16:39 SSW 22 2.82 Rain SCT030 SCT043 BKN060 23 21     85%   24 1014.9   0    
Feb 24 15:53 S 17 16.09 Clear CLR 24 21     79%   25 1014.6 1014.2      
Feb 24 14:53 S 15 16.09 Mostly Clear FEW120 23 21     90%   23 1015.2 1015 0 0  
Feb 24 14:01 SSW 9 4.83 Light Rain and Fog/Mist SCT042 BKN050 OVC075 21 21     100%     1016.3   0    
Feb 24 13:53 WSW 18 1.61 Heavy Rain and Fog/Mist FEW009 BKN036 OVC055 21 21     100%     1016.6 1016.5 0    
Feb 24 13:39 SW 18 2.82 Light Rain and Fog/Mist SCT036 BKN050 OVC065 22 20     90%   22 1016.9   0    
Feb 24 12:53 S 24 16.09 Mostly Cloudy FEW018 SCT043 BKN085 24 19     74%   25 1017.3 1016.9 0    
Feb 24 12:02 S 15 16.09 Cloudy FEW021 BKN046 OVC060 23 19     81%   23 1018.6        
Feb 24 11:53 SSE 24 14.48 Cloudy SCT020 BKN028 OVC065 23 19     81%   23 1018.6 1018.5     0
Feb 24 11:20 S 17 14.48 Cloudy FEW018 BKN035 OVC080 22 21     91%   23 1019.7        
Feb 24 10:53 S 15 12.87 Cloudy BKN018 OVC041 22 21     93%   22 1020 1019.8 0    
Feb 24 10:15 S 18 14.48 Cloudy OVC016 21 20     93%     1020.3   0    
Feb 24 09:53 S 15 6.44 Light Rain and Fog/Mist BKN014 BKN023 OVC039 21 20     93%     1020.7 1020.4 0    
Feb 24 09:10 S 13 11.27 Light Rain BKN011 OVC043 21 20     96%     1021   0    
Feb 24 08:53 S 15 14.48 Cloudy BKN044 OVC065 21 20     96%     1021 1020.7 0 0  
Feb 24 08:06 S 26 4.83 Light Rain and Fog/Mist FEW012 BKN046 OVC055 20 19     93%     1020.7   0    
Feb 24 08:03 S 26 3.22 Light Rain and Fog/Mist SCT012 BKN019 OVC060 20 19     96%     1020.7   0    
Feb 24 07:53 S 15 6.44 Light Rain and Fog/Mist BKN013 BKN019 OVC049 20 19     96%     1020.7 1020.5 0    
Feb 24 06:53 S 15 14.48 Light Rain OVC012 21 19     93%     1020.3 1020.2 0    
Feb 24 06:07 S 13 16.09 Cloudy BKN012 OVC065 21 19     93%     1020        
Feb 24 05:53 S 11 16.09 Cloudy FEW013 OVC065 20 19     96%     1020.3 1020     0
Feb 24 04:53 S 15 16.09 Cloudy FEW070 OVC080 21 19     93%     1019.7 1019.4 0    
Feb 24 04:36 S 11 16.09 Cloudy FEW014 SCT020 OVC075 21 19     93%     1019.7   0    
Feb 24 03:53 S 11 16.09 Cloudy BKN017 OVC080 21 19     93%     1020 1019.5      
Feb 24 02:53 S 11 16.09 Cloudy OVC060 21 19     93%     1020.3 1020 0 0  
Feb 24 02:11 S 13 14.48 Light Rain SCT017 BKN050 OVC080 21 19     90%     1020.7   0    
Feb 24 01:53 S 9 16.09 Cloudy BKN017 OVC085 21 19     87%     1021 1020.6      
Feb 24 01:41 S 9 16.09 Cloudy BKN019 OVC080 21 19     87%     1021        
Feb 24 00:53 S 9 16.09 Cloudy OVC090 21 19     87%     1021.3 1021      
Feb 23 23:53 S 13 9.66 Haze OVC100 22 18     81%   22 1021.7 1021.3 0   0
Feb 23 22:53 S 8 12.87 Cloudy OVC100 22 17     76%   22 1022 1021.7 0    
Feb 23 21:53 SE 15 16.09 Light Rain BKN036 BKN043 OVC065 22 17     76%   22 1022.4 1022.1 0    
Feb 23 20:53 Calm 16.09 Mostly Cloudy BKN042 BKN050 21 17     78%     1022.7 1022.4      
Feb 23 19:53 S 9 16.09 Clear CLR 22 17     71%   22 1022.7 1022.3      
Feb 23 18:53 SSE 8 16.09 Clear CLR 22 17     73%   22 1022.7 1022.5      
Feb 23 17:53 S 5 16.09 Clear CLR 23 17     66%   23 1023 1022.7      
Feb 23 16:53 S 13 16.09 Clear CLR 24 16     60%   24 1023 1022.8      
Feb 23 15:53 S 11 16.09 Mostly Clear FEW050 26 15     52%   26 1023.7 1023.3      
Feb 23 14:53 S 13 16.09 Mostly Clear FEW050 26 15     50%   26 1023.7 1023.4      
Feb 23 13:53 S 17 16.09 Mostly Clear FEW050 27 15     49%   27 1024.4 1024.1      
Feb 23 12:53 S 15 16.09 Clear CLR 25 15     54%   25 1025.7 1025.4      
Feb 23 11:53 S 13 16.09 Clear CLR 24 16     62%   24 1026.8 1026.4      
Feb 23 11:24 SSE 13 16.09 Mostly Cloudy SCT028 BKN036 23 17     68%   23 1027.4        
Feb 23 11:16 SSE 17 16.09 Mostly Cloudy BKN028 BKN036 23 17     66%   23 1027.8        
Feb 23 10:53 S 13 16.09 Partly Cloudy FEW023 SCT029 SCT036 23 17     71%   23 1028.1 1027.7      
Feb 23 10:43 S 15 16.09 Mostly Clear FEW021 FEW027 22 17     73%   22 1028.1        
Feb 23 09:53 SSW 17 16.09 Cloudy OVC022 21 17     81%     1028.8 1028.7      
Feb 23 09:18 SSW 9 16.09 Cloudy FEW013 OVC019 19 18     90%     1028.8        
Feb 23 08:53 SSW 15 14.48 Cloudy BKN010 OVC016 19 18     93%     1028.8 1028.5      
Feb 23 08:49 SSW 13 12.87 Cloudy BKN010 OVC016 19 18     94%     1028.8        
Feb 23 08:42 SW 8 12.87 Cloudy FEW009 OVC015 19 18     96%     1028.5        
Feb 23 07:53 SSW 8 11.27 Cloudy OVC013 18 18     100%     1027.8 1027.4      
Feb 23 07:24 S 11 11.27 Mostly Cloudy BKN014 18 18     100%     1027.4        
Feb 23 06:53 Calm 9.66 Fog/Mist CLR 16 16     97%     1026.8 1026.7      
Feb 23 05:53 Calm 14.48 Clear CLR 18 17     96%     1026.1 1025.9      
Feb 23 04:53 SE 9 16.09 Clear CLR 18 18     97%     1026.1 1025.6      
Feb 23 03:53 9 16.09 Clear CLR 19 18     90%     1026.1 1025.8      
Feb 23 02:53 Calm 16.09 Clear CLR 19 18     90%     1026.4 1026.2      
Feb 23 01:53 S 15 16.09 Mostly Clear FEW050 21 18     84%     1027.1 1026.6      
Feb 23 00:53 S 8 16.09 Mostly Cloudy BKN049 20 17     84%     1026.8 1026.6      
Feb 22 23:53 SSE 11 16.09 Clear CLR 21 17     78%     1026.4 1026.2      
Feb 22 22:53 S 9 16.09 Clear CLR 21 17     78%     1026.4 1026.3      
Feb 22 21:53 SE 11 16.09 Clear CLR 23 17     71%   23 1026.8 1026.3      
Feb 22 20:53 SE 9 16.09 Clear CLR 23 17     71%   23 1026.4 1026.2      
Feb 22 19:53 ESE 5 16.09 Clear CLR 24 18     69%   24 1026.1 1025.8      
Feb 22 18:53 SE 9 16.09 Clear CLR 24 18     67%   25 1025.7 1025.5      
Feb 22 17:53 SE 15 16.09 Clear CLR 26 18     62%   26 1025.7 1025.3      
Jun 11 13:53 11 16.09 Mostly Clear FEW050 32 19     47%   34 1019.3 1018.9      
Jun 11 12:53 SE 11 16.09 Mostly Clear FEW048 31 19     50%   33 1019.7 1019.4      
Jun 10 23:53 NNE 5 16.09 Clear CLR 22 19     84%   22 1018.3 1017.8 0    
Jun 10 11:53 5 16.09 Partly Cloudy SCT080 30 16     42%   30 1018.3 1017.9      
Jun 10 09:53 9 16.09 Clear CLR 27 17     53%   28 1018.3 1018.1      
Jun 09 15:53 SW 11 16.09 Clear CLR 28 14     44%   28 1013.9 1013.7      
Jun 09 01:53 Calm 12.87 Clear CLR 16 15     93%     1013.2 1012.9      
Jun 08 10:53 N 13 16.09 Clear CLR 24 15     56%   24 1013.9 1013.5      
Jun 06 03:53 NE 5 16.09 Cloudy OVC007 22 21     93%   23 1008.1 1007.9      
Jun 05 21:43 NE 8 16.09 Cloudy BKN009 OVC023 22 22     97%   23 1009.2   0